星链-3524 (STARLINK-3524 )

导读

STARLINK-3524是美国SpaceX公司星链计划的第二代低轨互联网卫星,于2022年2月21日发射升空,归属Starlink卫星星座组网,运行在近地轨道。作为全球规模最大低轨卫星互联网星座的一员,它为全球提供高速低延迟宽带服务,尤其服务偏远地区和移动场景的互联网接入,目前已和上万颗星链卫星共同构成覆盖全球的卫星通信网络。

基本信息
目录编号:
51721
目录名称:
STARLINK-3524
国际标识:
2022-016H
轨道中心:
EARTH
卫星名称:
星链-3524
卫星全名:
星链-3524 (STARLINK-3524 )
卫星状态:
在轨 (已飞行1664 天)
发射日期:
2022-02-21 UTC
国别 :
美国 (US)
星等 :
--
该卫星已列入 空间交会检测服务 Space Conjunction Data Service (SCDS) ,当前飞行风险评估等级: 无高风险
轨道信息
数据来源 国际轨道数据 AOE轨道数据
星历时间 2026-09-11T14:18:13+0800
1天前
查看轨道信息
2026-09-05T22:00:00+0800
6天前
查看轨道信息
半长轴 6848.868km 6848.875km
偏心率 0.0001294 0.0001191
轨道倾角 53.159° 53.162°
近地点辐角 83.343° 358.152°
升交点赤经 202.790° 229.238°
平近点角 276.772° 347.938°
近地点 469.844km 469.922km
远地点 471.618km 471.554km
周期 94.013分钟 94.013分钟
每日圈数 15.317033 15.31701
详细信息
固有亮度:
5
最大亮度:
2.5
卫星平台:
Starlink v1.5
覆盖范围:
全球
运营商:
太空探索技术公司
运营商所在国:
美国
制造商(研发单位):
太空探索技术公司
制造商所在国:
美国
使用方式:
暂无
卫星简介
星链(Starlink)计划是由太空探索技术公司(SpaceX)提出的一个巨型低轨卫星互联网星座项目,计划在2019年至2024年间在太空搭建由约1.2万颗卫星组成的“星链”网络,其中1584颗将部署在地球上空550千米处的近地轨道,并从2020年开始工作。该卫星仍在工作。
2D轨道图
3D轨道图
轨道高度分析图
轨道倾角分析图
轨道综合分析图
查看轨道综合分析图
与全量物体交会距离演化趋势
与全量物体交会风险概率演化趋势